Goshen, IN

2:12 AM EDT on March 26, 2017 (GMT -0400)
Goshen Municipal

Weather History for KGSH - December, 2012

Change the Weather History Date:

Thursday, December 6, 2012

  Actual Average Record
Temperature  
Mean Temperature 35 °F -  
Max Temperature 42 °F 39 °F 66 °F (1998)
Min Temperature 28 °F 25 °F 1 °F (2005)
Degree Days  
Heating Degree Days 30    
Moisture  
Dew Point 27 °F    
Average Humidity 74    
Maximum Humidity 83    
Minimum Humidity 65    
Precipitation  
Precipitation 0.00 in - - ()
Sea Level Pressure  
Sea Level Pressure 30.12 in    
Wind  
Wind Speed 8 mph (SE)    
Max Wind Speed 12 mph    
Max Gust Speed -    
Visibility 10 miles    
Events      
Averages and records for this station are not official NWS values.
T = Trace of Precipitation, MM = Missing Value Source: NWS Daily Summary

Daily Weather History Graph

Daily Weather History Graph

Search for Another Location

Airport or City:

Trip Planner

Search our weather history database for the weather conditions in past years. The results will help you decide how hot, cold, wet, or windy it might be!

Date:

Astronomy

Dec. 06, 2012 Rise Set
Actual Time 7:55 AM EST 5:13 PM EST
Civil Twilight 7:24 AM EST 5:44 PM EST
Nautical Twilight 6:49 AM EST 6:18 PM EST
Astronomical Twilight 6:16 AM EST 6:52 PM EST
Moon 12:06 AM EST (12/6) 12:43 PM EST (12/6)
Length of Visible Light 10h 19m
Length of Day
9h 17m
Waning Gibbous, 49% of the Moon is Illuminated
Dec 6
Waning Gibbous
Dec 13
New
Dec 20
First Quarter
Dec 28
Full
Jan 4
Last Quarter

Hourly Weather History & Observations

Time (EST) Temp. Windchill Dew Point Humidity Pressure Visibility Wind Dir Wind Speed Gust Speed Precip Events Conditions
12:53 AM 28.9 °F 21.1 °F 21.9 °F 75% 30.28 in 10.0 mi SE 8.1 mph - N/A   Clear
1:53 AM 28.9 °F 19.2 °F 21.9 °F 75% 30.27 in 10.0 mi SE 11.5 mph - N/A   Clear
2:53 AM 28.9 °F 21.1 °F 21.9 °F 75% 30.28 in 10.0 mi SE 8.1 mph - N/A   Clear
3:53 AM 28.9 °F 20.4 °F 21.9 °F 75% 30.27 in 10.0 mi SE 9.2 mph - N/A   Clear
4:53 AM 28.9 °F 20.4 °F 21.9 °F 75% 30.25 in 10.0 mi SE 9.2 mph - N/A   Clear
5:53 AM 28.9 °F 19.8 °F 21.9 °F 75% 30.24 in 10.0 mi SE 10.4 mph - N/A   Clear
6:53 AM 28.0 °F 20.0 °F 21.0 °F 75% 30.23 in 10.0 mi SE 8.1 mph - N/A   Clear
7:53 AM 28.9 °F 19.2 °F 21.9 °F 75% 30.21 in 10.0 mi SE 11.5 mph - N/A   Clear
8:53 AM 30.0 °F 24.1 °F 23.0 °F 75% 30.21 in 10.0 mi SE 5.8 mph - N/A   Clear
9:53 AM 30.9 °F 26.2 °F 24.1 °F 76% 30.21 in 10.0 mi SE 4.6 mph - N/A   Clear
10:53 AM 33.1 °F 26.9 °F 25.0 °F 72% 30.19 in 10.0 mi SE 6.9 mph - N/A   Clear
11:53 AM 35.1 °F 28.6 °F 27.0 °F 72% 30.14 in 10.0 mi SSE 8.1 mph - N/A   Clear
12:53 PM 39.0 °F 32.8 °F 28.9 °F 67% 30.11 in 10.0 mi SSE 9.2 mph - N/A   Clear
1:53 PM 39.9 °F 35.8 °F 30.0 °F 68% 30.07 in 10.0 mi SSE 5.8 mph - N/A   Clear
2:53 PM 42.1 °F 36.6 °F 30.9 °F 65% 30.04 in 10.0 mi SSE 9.2 mph - N/A   Clear
3:53 PM 42.1 °F 37.7 °F 32.0 °F 67% 30.03 in 10.0 mi SSE 6.9 mph - N/A   Clear
4:53 PM 41.0 °F 37.1 °F 32.0 °F 70% 30.02 in 10.0 mi SSE 5.8 mph - N/A   Clear
5:53 PM 39.9 °F 33.9 °F 32.0 °F 73% 30.01 in 10.0 mi SSE 9.2 mph - N/A   Clear
6:53 PM 39.0 °F 34.8 °F 32.0 °F 76% 30.01 in 10.0 mi SSE 5.8 mph - N/A   Clear
7:53 PM 37.9 °F 34.4 °F 32.0 °F 79% 30.01 in 9.0 mi SE 4.6 mph - N/A   Clear
8:53 PM 37.9 °F 33.5 °F 33.1 °F 83% 29.99 in 8.0 mi SE 5.8 mph - N/A   Clear
9:53 PM 39.0 °F 34.8 °F 33.1 °F 79% 29.98 in 8.0 mi SE 5.8 mph - N/A   Mostly Cloudy
10:53 PM 39.9 °F 37.8 °F 34.0 °F 79% 29.98 in 8.0 mi SSE 3.5 mph - N/A   Overcast
11:53 PM 41.0 °F 35.8 °F 35.1 °F 79% 29.96 in 9.0 mi SSE 8.1 mph - 0.00 in   Mostly Cloudy